Simultaneous Nadir Overpasses (SNOs) Predictions

Prediction of SNOs between AURA and NPP Satellite Orbit:

Table of predicted SNOs for the next 14.0 days since TLE Epoch: 8/3/2024
Index Date (AURA) Time (AURA) Lat,Lon (AURA) SZA (AURA ) Date (NPP) Time (NPP) Lat,Lon (NPP) SZA (NPP ) Distance(km) Time Diff (sec)
1 08/04/2024 01:28:52 80.74, 68.47 73.23 08/04/2024 01:28:03 80.74, 68.62 73.24 2.76 49
2 08/04/2024 02:18:14 -80.79,-123.32 106.86 08/04/2024 02:18:46 -80.78,-123.33 106.88 0.32 32
3 08/06/2024 15:12:45 -80.76, 42.78 106.14 08/06/2024 15:12:44 -80.76, 42.82 106.15 0.73 1
4 08/09/2024 04:07:15 -80.72,-151.28 105.37 08/09/2024 04:06:43 -80.72,-151.44 105.32 2.95 32
5 08/09/2024 04:56:35 80.79, 17.23 74.50 08/09/2024 04:57:24 80.79, 17.14 74.49 1.61 49
6 08/11/2024 17:01:42 -80.73, 15.19 104.66 08/11/2024 17:00:39 -80.73, 15.28 104.63 1.73 63
7 08/11/2024 17:51:02 80.80,-176.31 75.22 08/11/2024 17:51:20 80.80,-176.16 75.18 2.68 18
8 08/14/2024 06:45:27 80.79, -10.01 75.98 08/14/2024 06:45:16 80.79, -9.89 75.97 2.27 11
9 08/14/2024 07:34:49 -80.83, 158.20 104.11 08/14/2024 07:35:59 -80.84, 158.29 104.17 1.61 70
10 08/16/2024 19:39:53 80.74, 155.79 76.84 08/16/2024 19:39:15 80.73, 155.63 76.90 2.94 38



Historial Predications of SNOs between AURA and NPP
